[[{"header":{"parameterUnit":"m.s-1","parameterCategory":1,"la1":30.2991,"la2":30.254,"lo1":-89.0895,"lo2":-89.0444,"dy":0.0017,"dx":0.0017,"nx":28,"ny":28,"refTime":"2025-12-11T09:00:00:Z","depth":0,"parameterNumber":2,"parameterNumberName":"U-component_of_WINDS"},"data":[0,0,0,0,0,0,0,0,0,0,0,0,0,0,0,0,0,0,0,0,0,0,0,0,0,0,0,0,0,0,0,0,0,0,0,0,0,0,0,0,0,0,0,0,0,0,0,0,0,0,0,0,0,0,0,0,0,0,-1.1781,-1.1781,0,-1.1808,-1.1809,-1.1809,-1.1792,-1.1791,-1.179,-1.1789,-1.1819,-1.182,-1.1822,0,0,0,0,0,0,0,0,0,0,0,0,0,-1.1713,-1.1715,-1.1781,-1.1781,-1.1781,-1.1808,-1.1809,-1.1809,-1.1792,-1.1791,-1.179,-1.1789,-1.1818,-1.182,-1.1822,0,0,0,0,0,0,0,0,0,0,0,0,0,-1.1742,-1.1715,-1.1781,-1.1776,-1.1776,-1.1808,-1.1809,-1.1809,-1.1792,-1.1791,-1.179,-1.1789,-1.1818,-1.182,-1.1822,-1.1861,0,0,-1.1829,-1.183,0,0,0,0,0,0,0,0,-1.174,-1.1744,-1.1776,-1.1777,-1.1776,-1.1795,-1.1796,-1.1826,-1.1792,-1.1786,-1.1789,-1.1788,-1.1812,-1.1815,-1.1823,-1.1862,-1.1863,-1.1829,-1.1831,-1.1832,-1.1832,0,0,0,0,0,0,0,-1.1738,-1.1743,-1.1792,-1.1777,-1.1777,-1.1773,-1.1775,-1.1801,-1.1806,-1.1787,-1.1785,-1.1789,-1.1812,-1.182,-1.1823,-1.1864,-1.1829,-1.1831,-1.1833,-1.1834,-1.1934,-1.1935,0,0,0,0,0,0,-1.1737,-1.1742,-1.1791,-1.1793,-1.1755,-1.1775,-1.1778,-1.1791,-1.1805,-1.1806,-1.179,-1.1788,-1.1817,-1.182,-1.1824,-1.1868,-1.1832,-1.1834,-1.1835,-1.1933,-1.1934,-1.1935,0,0,0,0,0,0,-1.1735,-1.1741,-1.179,-1.1767,-1.1773,-1.1777,-1.1792,-1.1792,-1.18,-1.1808,-1.1808,-1.1798,-1.1816,-1.1821,-1.1851,-1.1869,-1.1835,-1.1837,-1.1931,-1.1933,-1.1935,-1.1958,0,0,0,0,0,0,-1.1733,-1.1741,-1.1756,-1.1767,-1.1774,-1.1816,-1.1793,-1.1793,-1.1804,-1.1802,-1.1815,-1.1816,-1.1816,-1.1848,-1.1853,-1.1872,-1.1839,-1.1929,-1.1932,-1.1934,-1.1956,-1.1961,-1.1965,0,0,0,0,0,-1.1731,-1.1762,-1.1757,-1.1763,-1.1793,-1.1818,-1.1821,-1.1819,-1.1806,-1.182,-1.1825,-1.1816,-1.1867,-1.1851,-1.1857,-1.1877,-1.1928,-1.1931,-1.1934,-1.1954,-1.196,-1.1965,0,0,0,0,0,0,-1.1754,-1.1764,-1.1758,-1.1793,-1.1804,-1.1815,-1.1833,-1.1826,-1.1842,-1.1839,-1.1837,-1.184,-1.1871,-1.1877,-1.1859,-1.1913,-1.1895,-1.1899,-1.1908,-1.1914,-1.1918,-1.1916,-1.1841,0,0,0,0,0,-1.1762,-1.1782,-1.179,-1.182,-1.1826,-1.1829,-1.184,-1.1837,-1.1849,-1.1854,-1.186,-1.1872,-1.189,-1.1903,-1.192,-1.1957,-1.1959,-1.1973,-1.1978,-1.1981,-1.1985,-1.2002,-1.2008,-1.1945,-1.1945,-1.1945,0,0,-1.1781,-1.1789,-1.1802,-1.1825,-1.1833,-1.1853,-1.1833,-1.1855,-1.1869,-1.1857,-1.1885,-1.1891,-1.1904,-1.1937,-1.1952,-1.1943,-1.2002,-1.1985,-1.1988,-1.1989,-1.2006,-1.2012,-1.2017,-1.1947,-1.1946,-1.1946,0,0,-1.1825,-1.1834,-1.1859,-1.1868,-1.188,-1.1882,-1.1888,-1.1898,-1.1901,-1.1929,-1.192,-1.1937,-1.1969,-1.1978,-1.1987,-1.2032,-1.2024,-1.2038,-1.2062,-1.2079,-1.2084,-1.2088,-1.2102,-1.2108,-1.2042,-1.2042,-1.2042,0,-1.1847,-1.1876,-1.1873,-1.1895,-1.1905,-1.1894,-1.1919,-1.1928,-1.1946,-1.1953,-1.1942,-1.1981,-1.1989,-1.2023,-1.2034,-1.2042,-1.2048,-1.2036,-1.2083,-1.2088,-1.2092,-1.2105,-1.2111,-1.2043,-1.2043,-1.2043,-1.2043,0,-1.1902,-1.1922,-1.1941,-1.1957,-1.1969,-1.1993,-1.1993,-1.2005,-1.2001,-1.2003,-1.2031,-1.2041,-1.2059,-1.2067,-1.2064,-1.21,-1.2093,-1.2084,-1.2065,-1.2099,-1.2112,-1.2117,-1.2046,-1.2045,-1.2045,-1.2044,0,0,-1.1961,-1.1974,-1.1981,-1.1987,-1.1999,-1.2015,-1.2037,-1.2054,-1.2064,-1.2077,-1.2095,-1.2121,-1.2111,-1.2121,-1.2119,-1.2135,-1.2167,-1.2122,-1.2123,-1.2129,-1.2205,-1.2212,-1.2218,-1.2162,-1.2164,-1.2164,-1.2204,0,-1.2004,-1.2043,-1.204,-1.2076,-1.2094,-1.2083,-1.2102,-1.2112,-1.2114,-1.2129,-1.2132,-1.215,-1.2137,-1.2142,-1.2157,-1.216,-1.2183,-1.2158,-1.2178,-1.2179,-1.2174,-1.2225,-1.2232,-1.2269,-1.2209,-1.221,-1.221,0,-1.206,-1.2073,-1.211,-1.2118,-1.2125,-1.2143,-1.2157,-1.2172,-1.2182,-1.2183,-1.2193,-1.2188,-1.2209,-1.2191,-1.222,-1.2203,-1.2212,-1.2215,-1.2216,-1.2217,-1.2196,-1.2225,-1.2281,-1.2285,-1.2218,-1.2218,-1.2217,0,-1.2097,-1.2124,-1.2149,-1.2155,-1.2166,-1.2178,-1.2183,-1.2191,-1.2201,-1.2214,-1.2219,-1.2235,-1.2243,-1.2255,-1.2253,-1.224,-1.2283,-1.2265,-1.2283,-1.2283,-1.2291,-1.2291,-1.2347,-1.2299,-1.2299,-1.2299,-1.2299,0,-1.2145,-1.2168,-1.2166,-1.2181,-1.2206,-1.2203,-1.2227,-1.2231,-1.2239,-1.2254,-1.2246,-1.2261,-1.2259,-1.2274,-1.2273,-1.2296,-1.2301,-1.2301,-1.23,-1.2301,-1.2301,-1.2305,-1.2302,-1.2301,-1.23,-1.23,-1.23,0,-1.219,-1.219,-1.2216,-1.2223,-1.2225,-1.2243,-1.2249,-1.2263,-1.2265,-1.2284,-1.2289,-1.2291,-1.2307,-1.2307,-1.2327,-1.2326,-1.2354,-1.2352,-1.235,-1.2349,-1.2367,-1.2364,-1.2427,-1.2434,-1.2383,-1.2384,-1.2384,0,-1.2219,-1.2237,-1.2245,-1.2254,-1.2259,-1.2275,-1.2284,-1.2281,-1.2291,-1.2303,-1.2316,-1.2331,-1.2344,-1.2371,-1.2374,-1.2388,-1.2385,-1.2406,-1.2387,-1.2386,-1.2383,-1.2381,-1.2382,-1.2409,-1.2409,-1.241,-1.241,0,-1.2272,-1.227,-1.2284,-1.2296,-1.2307,-1.2318,-1.2327,-1.2336,-1.2333,-1.2345,-1.2361,-1.2371,-1.239,-1.2405,-1.2418,-1.2423,-1.2416,-1.2416,-1.2421,-1.2421,-1.2419,-1.2418,-1.2359,-1.2415,-1.2414,-1.2414,-1.2414,-1.2413,-1.2309,-1.2322,-1.233,-1.2344,-1.2351,-1.236,-1.2373,-1.2375,-1.2388,-1.2403,-1.24,-1.2418,-1.2426,-1.2443,-1.2449,-1.2463,-1.2456,-1.2463,-1.2464,-1.2466,-1.2467,-1.2418,-1.2466,-1.2466,-1.2466,-1.2465,-1.2465,0,-1.2359,-1.2362,-1.2376,-1.2389,-1.24,-1.2392,-1.2401,-1.2411,-1.2427,-1.2435,-1.2446,-1.2464,-1.2479,-1.2483,-1.2496,-1.2506,-1.2503,-1.251,-1.2508,-1.2509,-1.2474,-1.2467,-1.2512,-1.2512,-1.2512,-1.2512,-1.2512,-1.2512,-1.2386,-1.2408,-1.2407,-1.2432,-1.2436,-1.2453,-1.2459,-1.2466,-1.2472,-1.2492,-1.2504,-1.2506,-1.2512,-1.2525,-1.2538,-1.2538,-1.2543,-1.2551,-1.255,-1.2517,-1.2512,-1.2507,-1.2501,-1.2552,-1.2552,-1.2584,-1.2584,-1.2584]},{"header":{"parameterUnit":"m.s-1","parameterCategory":1,"la1":30.2991,"la2":30.254,"lo1":-89.0895,"lo2":-89.0444,"dy":0.0017,"dx":0.0017,"nx":28,"ny":28,"refTime":"2025-12-11T09:00:00:Z","depth":0,"parameterNumber":3,"parameterNumberName":"V-component_of_WINDS"},"data":[0,0,0,0,0,0,0,0,0,0,0,0,0,0,0,0,0,0,0,0,0,0,0,0,0,0,0,0,0,0,0,0,0,0,0,0,0,0,0,0,0,0,0,0,0,0,0,0,0,0,0,0,0,0,0,0,0,0,-0.3888,-0.3887,0,-0.3816,-0.3815,-0.3815,-0.3817,-0.3818,-0.3819,-0.382,-0.3744,-0.3741,-0.3738,0,0,0,0,0,0,0,0,0,0,0,0,0,-0.4023,-0.402,-0.3888,-0.3887,-0.3886,-0.3816,-0.3815,-0.3814,-0.3817,-0.3818,-0.3819,-0.382,-0.3745,-0.3742,-0.3738,0,0,0,0,0,0,0,0,0,0,0,0,0,-0.3959,-0.4019,-0.3888,-0.3879,-0.3877,-0.3817,-0.3815,-0.3814,-0.3816,-0.3818,-0.3819,-0.3821,-0.3746,-0.3742,-0.3738,-0.3681,0,0,-0.3724,-0.3722,0,0,0,0,0,0,0,0,-0.3962,-0.3954,-0.3881,-0.3879,-0.3877,-0.3827,-0.3835,-0.3769,-0.3816,-0.3839,-0.382,-0.3821,-0.377,-0.3764,-0.3747,-0.3677,-0.3674,-0.3724,-0.3721,-0.3719,-0.3718,0,0,0,0,0,0,0,-0.3967,-0.3957,-0.3859,-0.388,-0.3878,-0.3877,-0.387,-0.3823,-0.3797,-0.3837,-0.3837,-0.3829,-0.377,-0.3752,-0.3746,-0.3673,-0.3724,-0.372,-0.3717,-0.3716,-0.3551,-0.3549,0,0,0,0,0,0,-0.3974,-0.3961,-0.3862,-0.3857,-0.3925,-0.3873,-0.3865,-0.3842,-0.3798,-0.3793,-0.3828,-0.3829,-0.3758,-0.3751,-0.3743,-0.3672,-0.3719,-0.3715,-0.3713,-0.3552,-0.355,-0.3548,0,0,0,0,0,0,-0.3977,-0.3965,-0.3865,-0.3909,-0.3896,-0.387,-0.3843,-0.3839,-0.3821,-0.3791,-0.3786,-0.3814,-0.3759,-0.3749,-0.3696,-0.3669,-0.3713,-0.3709,-0.3554,-0.3552,-0.3549,-0.353,0,0,0,0,0,0,-0.398,-0.3966,-0.3945,-0.3908,-0.3894,-0.3819,-0.3842,-0.3837,-0.3814,-0.3815,-0.3777,-0.3772,-0.376,-0.3703,-0.3692,-0.3664,-0.3706,-0.3557,-0.3553,-0.355,-0.3533,-0.3527,-0.3522,0,0,0,0,0,-0.3985,-0.3942,-0.3944,-0.3932,-0.3867,-0.3818,-0.3809,-0.3797,-0.3812,-0.379,-0.377,-0.3773,-0.3674,-0.3697,-0.3685,-0.3655,-0.3558,-0.3554,-0.355,-0.3535,-0.3528,-0.3522,0,0,0,0,0,0,-0.3975,-0.3937,-0.3938,-0.3883,-0.3854,-0.3819,-0.379,-0.379,-0.3756,-0.3759,-0.3744,-0.3736,-0.3682,-0.3664,-0.369,-0.3597,-0.3618,-0.3611,-0.3611,-0.3604,-0.3598,-0.3603,-0.3702,0,0,0,0,0,-0.3967,-0.3931,-0.39,-0.3853,-0.3839,-0.3817,-0.3795,-0.3788,-0.3757,-0.3745,-0.3721,-0.369,-0.3652,-0.3627,-0.3591,-0.3531,-0.3521,-0.3504,-0.3499,-0.3495,-0.3489,-0.3453,-0.3445,-0.3535,-0.3535,-0.3535,0,0,-0.3948,-0.3923,-0.3901,-0.385,-0.3827,-0.3789,-0.3807,-0.3766,-0.3737,-0.3738,-0.3686,-0.3668,-0.3632,-0.3575,-0.3549,-0.3558,-0.3462,-0.349,-0.3487,-0.3483,-0.3449,-0.344,-0.3432,-0.3533,-0.3533,-0.3534,0,0,-0.3895,-0.3873,-0.3831,-0.3808,-0.3772,-0.3758,-0.3748,-0.3713,-0.37,-0.3648,-0.3648,-0.3613,-0.3549,-0.3523,-0.3501,-0.3437,-0.3438,-0.3426,-0.3397,-0.3363,-0.3355,-0.3349,-0.3324,-0.3315,-0.342,-0.342,-0.342,0,-0.3876,-0.382,-0.381,-0.3768,-0.3745,-0.3745,-0.3702,-0.3679,-0.3633,-0.3616,-0.3628,-0.3546,-0.3522,-0.3458,-0.3442,-0.3425,-0.3412,-0.3429,-0.3358,-0.3351,-0.3345,-0.3321,-0.3312,-0.3419,-0.3419,-0.3419,-0.3419,0,-0.3798,-0.3759,-0.3729,-0.3685,-0.3658,-0.3616,-0.3598,-0.3572,-0.3568,-0.3552,-0.3498,-0.3469,-0.3426,-0.3411,-0.3406,-0.3345,-0.3352,-0.3361,-0.3381,-0.3335,-0.3312,-0.3303,-0.3417,-0.3417,-0.3417,-0.3418,0,0,-0.3735,-0.3686,-0.3675,-0.3654,-0.3615,-0.3584,-0.3541,-0.35,-0.3477,-0.3445,-0.3408,-0.3353,-0.336,-0.3336,-0.3328,-0.3298,-0.3247,-0.331,-0.3309,-0.3298,-0.3175,-0.3167,-0.3157,-0.3248,-0.3246,-0.3245,-0.3178,0,-0.3676,-0.3601,-0.359,-0.3523,-0.3486,-0.3485,-0.3447,-0.3419,-0.3403,-0.3368,-0.335,-0.331,-0.3324,-0.3309,-0.328,-0.3259,-0.3222,-0.3264,-0.3211,-0.3209,-0.3218,-0.3145,-0.3137,-0.3075,-0.3169,-0.3167,-0.3166,0,-0.3597,-0.3563,-0.3493,-0.3457,-0.3441,-0.3408,-0.3368,-0.3335,-0.3302,-0.3292,-0.3264,-0.326,-0.3214,-0.3238,-0.3173,-0.3203,-0.318,-0.3167,-0.3164,-0.3157,-0.3183,-0.3134,-0.3055,-0.3045,-0.3152,-0.3154,-0.3155,0,-0.3555,-0.3493,-0.3442,-0.3425,-0.3383,-0.3359,-0.334,-0.3308,-0.3283,-0.3248,-0.3232,-0.3192,-0.3169,-0.3138,-0.3122,-0.3141,-0.3058,-0.3081,-0.3047,-0.3047,-0.3028,-0.3029,-0.2942,-0.3017,-0.3017,-0.3017,-0.3018,0,-0.3489,-0.3446,-0.3423,-0.3391,-0.3341,-0.3329,-0.328,-0.3262,-0.3233,-0.3197,-0.3195,-0.3161,-0.3143,-0.3106,-0.3094,-0.3041,-0.3031,-0.3021,-0.3018,-0.302,-0.3021,-0.3003,-0.3006,-0.3015,-0.3016,-0.3016,-0.3016,0,-0.3434,-0.3417,-0.3361,-0.3326,-0.3316,-0.3281,-0.325,-0.3219,-0.3204,-0.3158,-0.3146,-0.3121,-0.3077,-0.3059,-0.3005,-0.2997,-0.2935,-0.2937,-0.2946,-0.2945,-0.2911,-0.2913,-0.2808,-0.2792,-0.288,-0.2879,-0.2879,0,-0.3392,-0.3358,-0.3319,-0.3295,-0.3276,-0.3237,-0.3212,-0.3198,-0.3171,-0.313,-0.3103,-0.306,-0.3024,-0.2953,-0.293,-0.2888,-0.2887,-0.2853,-0.288,-0.2883,-0.2883,-0.2885,-0.288,-0.2847,-0.2846,-0.2845,-0.2845,0,-0.3318,-0.3311,-0.3275,-0.3235,-0.3205,-0.3173,-0.3142,-0.3122,-0.3103,-0.3073,-0.3029,-0.3001,-0.2946,-0.2901,-0.2858,-0.2838,-0.2837,-0.2837,-0.2826,-0.2826,-0.2833,-0.2826,-0.293,-0.2838,-0.2839,-0.284,-0.284,-0.284,-0.3266,-0.3235,-0.3203,-0.3162,-0.3138,-0.3108,-0.3076,-0.3057,-0.302,-0.2974,-0.2968,-0.2919,-0.2886,-0.2828,-0.2806,-0.2766,-0.2775,-0.276,-0.2756,-0.2752,-0.2749,-0.2841,-0.2759,-0.2759,-0.2759,-0.2759,-0.2759,0,-0.319,-0.3169,-0.3132,-0.3088,-0.3056,-0.306,-0.3025,-0.2997,-0.2955,-0.2924,-0.2889,-0.2836,-0.2793,-0.2766,-0.2722,-0.2696,-0.2694,-0.2685,-0.2685,-0.268,-0.2745,-0.2757,-0.2687,-0.2687,-0.2687,-0.2687,-0.2687,-0.2687,-0.3146,-0.3094,-0.3083,-0.3018,-0.2997,-0.295,-0.2929,-0.2902,-0.2877,-0.2818,-0.2783,-0.2766,-0.2736,-0.269,-0.265,-0.2643,-0.2626,-0.2615,-0.2608,-0.2669,-0.2676,-0.2683,-0.2694,-0.2612,-0.2612,-0.2547,-0.2546,-0.2546]}]]